Location: Leuk
(46.3174°N, 7.6341°E)
Time: 13:52:37
(UTC+00:00)

Cosmos 2322 - Visible Passes

Search period start: 12 June 2021 00:00
Search period end: 22 June 2021 00:00
Orbit: 842 x 853 km, 71.0° (Epoch: 12 June)

Date Brightness Start Highest point End Pass type
(mag) Time Alt. Az. Time Alt. Az. Time Alt. Az.
12 Jun 6.0 00:55:47 10° WNW 00:59:16 16° NW 01:02:46 10° N visible
12 Jun 5.2 21:15:45 16° ESE 21:17:16 18° E 21:20:56 10° ENE visible
12 Jun 3.8 22:57:37 27° SW 23:00:46 75° WNW 23:06:27 10° NNE visible
13 Jun 6.0 00:42:26 10° W 00:45:58 17° NW 00:49:31 10° N visible
13 Jun 5.2 21:02:10 15° ESE 21:04:00 17° E 21:07:36 10° ENE visible
13 Jun 3.8 22:44:03 25° SW 22:47:29 76° WNW 22:53:10 10° NNE visible
14 Jun 6.1 00:29:05 10° W 00:32:40 17° NW 00:36:16 10° N visible
14 Jun 5.3 20:48:30 14° SE 20:50:44 17° E 20:54:16 10° ENE visible
14 Jun 3.8 22:30:23 21° SSW 22:34:12 78° WNW 22:39:54 10° NNE visible
15 Jun 6.1 00:15:45 10° W 00:19:22 17° NW 00:23:01 10° N visible
15 Jun 5.3 20:34:43 12° SE 20:37:28 17° E 20:40:56 10° ENE visible
15 Jun 3.8 22:16:36 18° SSW 22:20:55 79° WNW 22:26:37 10° NNE visible
16 Jun 6.1 00:02:24 10° W 00:06:04 17° NW 00:09:46 10° N visible
16 Jun 5.3 20:20:49 10° SE 20:24:12 16° E 20:27:36 10° ENE visible
16 Jun 3.8 22:02:41 14° SSW 22:07:39 80° WNW 22:13:21 10° NNE visible
16 Jun 6.1 23:49:04 10° W 23:52:47 18° NW 23:56:30 10° N visible
17 Jun 5.3 20:07:37 10° SE 20:10:57 16° E 20:14:16 10° ENE visible
17 Jun 3.7 21:48:43 10° SSW 21:54:22 82° WNW 22:00:04 10° NNE visible
17 Jun 6.2 23:35:44 10° W 23:39:28 18° NW 23:43:15 10° N visible
18 Jun 3.7 21:35:26 10° SSW 21:41:05 83° WNW 21:46:47 10° NNE visible
18 Jun 6.2 23:22:23 10° W 23:26:11 18° NW 23:30:00 10° N visible
19 Jun 3.7 21:22:09 10° SSW 21:27:48 84° WNW 21:33:30 10° NNE visible
19 Jun 6.2 23:09:03 10° W 23:12:53 18° NW 23:16:45 10° N visible
20 Jun 3.7 21:08:52 10° SSW 21:14:32 86° WNW 21:20:14 10° NNE visible
20 Jun 6.2 22:55:43 10° W 22:59:35 18° NW 23:03:28 10° N visible
21 Jun 3.7 20:55:36 10° SSW 21:01:15 87° WNW 21:06:57 10° NNE visible
21 Jun 6.3 22:42:22 10° W 22:46:17 19° NW 22:50:13 10° N visible
